Regional Weather Roundup
Issued by NWS

Home | Current Version | Previous Version | Text Only | Print | Product List | Glossary On
Versions: 1 2 3 4 5 6 7 8 9 10 11 12 13 14 15 16 17 18 19 20 21 22 23 24 25 26 27 28 29 30 31 32 33 34 35 36 37 38 39 40 41 42 43 44 45 46 47 48 49 50
000
ASUS43 KMKX 231111
RWRWI

WISCONSIN REGIONAL WEATHER ROUNDUP
NATIONAL WEATHER SERVICE MILWAUKEE/SULLIVAN WI
600 AM CDT WED MAY 23 2018

NOTE: "FAIR" INDICATES FEW OR NO CLOUDS BELOW 12,000 FEET WITH NO
SIGNIFICANT WEATHER AND/OR OBSTRUCTIONS TO VISIBILITY.

WIZ001-002-006>008-014>016-023>028-231200-
NORTHWEST WISCONSIN

CITY           SKY/WX    TMP DP  RH WIND       PRES   REMARKS
SUPERIOR ARPT  FOG       51  51 100 CALM      30.11R VSB<1/4
ASHLAND        FAIR      50  50 100 SW6       30.12R
HAYWARD        FAIR      45  43  93 N3        30.14R
SIREN          FAIR      47  46  93 CALM      30.12S
CUMBERLAND     FOG       48  46  93 CALM      30.13S VSB<1/4
RICE LAKE      FOG       50  50  99 CALM      30.15R VSB<1/4
CHETEK         FOG       50  50 100 CALM      30.13S VSB 3/4
LADYSMITH      FOG       51  51  97 CALM      30.16S VSB<1/4
EAU CLAIRE     FAIR      48  48 100 CALM      30.13R FOG
MENOMONIE      FOG       52  52 100 CALM      30.13S VSB<1/4
NEW RICHMOND   FAIR      54  54  98 SE5       30.12R FOG
OSCEOLA        FAIR      56  54  94 SE5       30.14R FOG
$$

WIZ003>005-009-010-017-018-231200-
NORTH CENTRAL WISCONSIN

CITY           SKY/WX    TMP DP  RH WIND       PRES   REMARKS
MANITOWISH WTR FOG       44  44 100 CALM      30.15R VSB<1/4
ARBOR VITAE    FAIR      52  50  93 CALM      30.15R FOG
WOODRUFF       FAIR      52  50  93 CALM      30.15R FOG
RHINELANDER    FOG       50  49  96 CALM      30.16R VSB 1/4
EAGLE RIVER    FOG       45  45 100 CALM      30.15R VSB 3/4
LAND O LAKES   FAIR      42  41  99 CALM      30.17R
PHILLIPS       FAIR      47  47 100 CALM      30.15R
TOMAHAWK       FAIR      44  43  97 CALM      30.17R
MEDFORD        FOG       46  46  99 NE3       30.15S VSB<1/4
MERRILL        FOG       46  46 100 CALM      30.17R VSB 1/4
$$

WIZ029-030-035-036-043>047-231200-
CENTRAL WISCONSIN

CITY           SKY/WX    TMP DP  RH WIND       PRES   REMARKS
WAUSAU         FOG       54  54 100 N3        30.14S VSB 1
MOSINEE        PTCLDY    54  54 100 NW3       30.16S
MARSHFIELD     MOCLDY    51  51 100 CALM      30.14S FOG
STEVENS POINT  FAIR      47  47 100 CALM      30.16S
WAUPACA        FAIR      57  56  99 CALM      30.16R
WAUTOMA        FAIR      50  50 100 CALM      30.16S FOG
WISC RAPIDS    FAIR      50  50 100 CALM      30.16R FOG
CAMP DOUGLAS   FOG       48  48 100 CALM      30.15R VSB 1/8
$$

WIZ011>013-019>022-031-037>040-048>050-231200-
NORTHEAST WISCONSIN

CITY           SKY/WX    TMP DP  RH WIND       PRES   REMARKS
ANTIGO         FOG       46  46 100 CALM      30.16R VSB 1/4
SHAWANO        FAIR      57  55  93 SW5       30.13R
OCONTO         CLOUDY    50  50  99 CALM      30.12R VSB 1/4
STURGEON BAY   FAIR      54  51  90 W5        30.13R
GREEN BAY      FAIR      57  55  93 W5        30.13R
MANITOWOC      FAIR      59  57  93 W3        30.14R
APPLETON       PTCLDY    55  55 100 W9        30.12R
CLINTONVILLE   FAIR      56  54  94 W3        30.14R
OSHKOSH        FAIR      56  54  93 CALM      30.15R
$$

WIZ032>034-041-042-053>061-231200-
SOUTHWEST WISCONSIN

CITY           SKY/WX    TMP DP  RH WIND       PRES   REMARKS
LA CROSSE      CLOUDY    56  54  93 SE6       30.14R
SPARTA         FOG       46  46 100 CALM      30.16R VSB<1/4
VIROQUA        MOCLDY    57  57 100 SE5       30.16R
BOSCOBEL       FOG       55  54  96 CALM      30.16R VSB<1/4
PRAIRIE DU CHI FAIR      55  54  95 E6        30.14S
PLATTEVILLE    FAIR      56  56 100 CALM      30.17R
$$

WIZ056-057-062-063-064-067-068-231200-
SOUTH CENTRAL WISCONSIN

CITY           SKY/WX    TMP DP  RH WIND       PRES   REMARKS
REEDSBURG      FOG       51  51 100 CALM      30.16R VSB<1/4
BARABOO/DELLS  FAIR      49  48  96 CALM      30.16R FOG
LONE ROCK      FOG       53  53 100 CALM      30.16R VSB<1/4
MINERAL POINT  FAIR      57  57 100 CALM      30.17R FOG
MADISON        MOCLDY    50  50 100 W3        30.15R FOG
MIDDLETON      CLOUDY    51  51 100 CALM      30.17R VSB 1/2
WATERTOWN      FOG       49  49 100 CALM      30.16R VSB<1/4
MONROE         FAIR      55  55 100 E3        30.16R FOG
JANESVILLE     FOG       52  52 100 CALM      30.16R VSB 1/2
$$

WIZ051-052-058>065-066-070>072-231200-
SOUTHEAST WISCONSIN

CITY           SKY/WX    TMP DP  RH WIND       PRES   REMARKS
MILWAUKEE      MOCLDY    56  54  93 NW5       30.15R
WAUKESHA       CLEAR     52  52 100 W3        30.17R
MILWAUKEE/TIMM FOG       50  46  87 CALM      30.16R VSB 1/2
RACINE         FAIR      50  50 100 CALM      30.17R FOG
BURLINGTON     FAIR      48  47  98 SW3       30.16R FOG
KENOSHA        FOG       51  50  96 CALM      30.16R VSB 1
FOND DU LAC    FAIR      52  51  97 SW3       30.16R FOG
SHEBOYGAN      FAIR      55  54  96 W5        30.14R
WEST BEND      FOG       46  46 100 CALM      30.16R VSB 1/4
JUNEAU         FOG       49  49  99 CALM      30.17R VSB<1/4
$$

LSZ147-162-231200-
LAKE SUPERIOR

STATION/POSITION TIME  TEMP    WIND        PRES    WAVE
                       AIR SEA DIR/SP/G            HT/PER
                 (UTC) (F)     (DEG/KT/KT) (MB)    (FT/S)
W MID LAKE BUOY  1050   41 36  210/  8/  8 1018.8R   0
DEVILS ISLAND    1100   59     240/ 14/ 15 1019.0R
SAXON HARBOR     1030   56     190/  6/  7 1018.6R
$$

LMZ867-665-643>646-231200-
LAKE MICHIGAN

STATION/POSITION TIME  TEMP    WIND        PRES    WAVE
                       AIR SEA DIR/SP/G            HT/PER
                 (UTC) (F)     (DEG/KT/KT) (MB)    (FT/S)
N MID LAKE BUOY  1050   38 37  160/  4/  6 1019.7R   1
NORTHPORT PIER   1040   48      CALM  /  1 1019.3R
KEWAUNEE LAKESHO 1048   57      CALM  /  1 1019.2R
SHEBOYGAN LAKESH 1100   59     270/  8/  9 1020.5R
PORT WASHINGTON  1040   59     300/  8/ 11 1021.3R
ATWATER BUOY     1007   53 49  320/  4/  4 1020.8    0
MILWAUKEE LAKESH 1050   58     310/  6/  7   N/A
S MID LAKE BUOY  1050   42 39  170/  4/  4 1021.8R   0
KENOSHA   LAKESH 1100   55                 1021.3
$$

TC  - TEMPERATURE IN CELSIUS
VSB - VISIBILITY IN STATUTE MILES
WCI - WIND CHILL INDEX
HX  - HEAT INDEX




USA.gov is the U.S. government's official web portal to all federal, state and local government web resources and services.